Location: ??????
(38.3184°N, 23.6932°E)
Time: 12:53:11
(UTC+00:00)

Cosmos 1727 Rocket - Visible Passes

Search period start: 29 May 2022 00:00
Search period end: 08 June 2022 00:00
Orbit: 962 x 995 km, 82.9° (Epoch: 28 May)

Date Brightness Start Highest point End Pass type
(mag) Time Alt. Az. Time Alt. Az. Time Alt. Az.
29 May 6.5 02:25:12 10° SE 02:30:02 24° E 02:34:53 10° NE visible
31 May 7.1 01:37:05 10° E 01:37:57 10° ENE 01:38:49 10° ENE visible
01 Jun 6.5 01:59:13 10° SE 02:03:47 21° E 02:08:22 10° NE visible
02 Jun 5.5 02:24:01 10° SSE 02:29:48 40° E 02:35:39 10° NNE visible
04 Jun 6.5 01:33:18 10° SE 01:37:33 19° E 01:41:48 10° NE visible
05 Jun 5.6 01:57:53 10° SSE 02:03:32 36° E 02:09:14 10° NNE visible
06 Jun 4.5 02:23:27 10° S 02:29:42 68° E 02:36:01 10° NNE visible
07 Jun 6.5 01:07:27 10° ESE 01:11:19 17° E 01:15:11 10° NE visible
